This is the latest recevied weather packets stored in our database for station/object DG3RAP-11. If no packets are shown the sender has not sent any weather packets the latest 10 day(s).
| Time | Temp. | Humidity | Pressure | Rain* | Wind** | Luminosity | Snow |
|---|---|---|---|---|---|---|---|
| 1777118403 | 19.44° C | 30% | 1016 hPa | 0 mm | - | - | - |
| 1777118043 | 19.44° C | 32% | 1016.1 hPa | 0 mm | - | - | - |
| 1777117503 | 19.44° C | 33% | 1016.2 hPa | 0 mm | - | - | - |
| 1777116963 | 18.33° C | 34% | 1016.1 hPa | 0 mm | - | - | - |
| 1777116423 | 18.33° C | 35% | 1016.2 hPa | 0 mm | - | - | - |
| 1777115884 | 17.78° C | 34% | 1016.3 hPa | 0 mm | - | - | - |
| 1777115343 | 18.33° C | 34% | 1016.4 hPa | 0 mm | - | - | - |
| 1777114803 | 18.33° C | 37% | 1016.4 hPa | 0 mm | - | - | - |
| 1777114444 | 18.89° C | 36% | 1016.4 hPa | 0 mm | - | - | - |
| 1777113904 | 17.78° C | 39% | 1016.7 hPa | 0 mm | - | - | - |
| 1777113363 | 17.22° C | 39% | 1016.6 hPa | 0 mm | - | - | - |
| 1777112823 | 17.22° C | 40% | 1016.8 hPa | 0 mm | - | - | - |
| 1777112283 | 17.22° C | 40% | 1017 hPa | 0 mm | - | - | - |
| 1777111743 | 17.22° C | 40% | 1017 hPa | 0 mm | - | - | - |
| 1777111203 | 17.22° C | 40% | 1017.2 hPa | 0 mm | - | - | - |
| 1777110843 | 16.67° C | 41% | 1017.2 hPa | 0 mm | - | - | - |
| 1777110303 | 16.67° C | 44% | 1017.1 hPa | 0 mm | - | - | - |
| 1777109763 | 16.11° C | 45% | 1017.2 hPa | 0 mm | - | - | - |
| 1777109223 | 16.11° C | 44% | 1017.1 hPa | 0 mm | - | - | - |
| 1777108683 | 16.11° C | 47% | 1017.1 hPa | 0 mm | - | - | - |
| 1777108144 | 16.11° C | 53% | 1017.4 hPa | 0 mm | - | - | - |
| 1777107603 | 15° C | 54% | 1017.6 hPa | 0 mm | - | - | - |
| 1777107244 | 15.56° C | 55% | 1017.2 hPa | 0 mm | - | - | - |
| 1777106703 | 14.44° C | 57% | 1017.2 hPa | 0 mm | - | - | - |
| 1777106163 | 15° C | 57% | 1017.3 hPa | 0 mm | - | - | - |
* Rain latest hour (hover to see other rain measurements)
** Current wind speed in m/s (hover to see current wind gust speed)